STARLINK-30239, 57291

Orbit data source: Space-Track

STARLINK-30239, 57291 is a payload satellite owned by SpaceX/Seattle (US) in LEO that was launched on Mon, 10 Jul 2023 UTC via an FALCON 9 launch vehicle from the Air Force Eastern Test Range (AFETR). Payload-class satellites include a variety of spacecraft equipped with specific instruments for various scientific and technological missions. These include communications satellites like Starlink; space stations such as the ISS; scientific satellites like the Hubble; Earth observation satellites from companies like Planet Labs, Umbra, and HawkEye 360; GPS; miniature CubeSats for education and research; and military/defense satellites.

Loading next visibility...
Identifier
57291, 2023-096B
Orbit
LEO
Country
Flag of USUS
Related business
Manufacturer
SpaceX/Seattle
Mission
Operational Commercial Communications
Bus & Motor
STARLINK V2M, Unknown motor
Mass
730 kg wet, ~700 kg dry
Launch date (UTC)
2023-07-10 (2 years ago)
Launch vehicle
FALCON 9
Launch site
Air Force Eastern Test Range (AFETR)
Object type
Payload
Rocket body
Debris
Shape & HBR
Box + 2 Pan, 17.7 m
Radar Cross Section
33.884 m², Large (>1 m²)

Expand to show TLE details & history
Last TLE update: 1 day ago

TLE from 1 day ago
0 STARLINK-30239
1 57291U 23096B   25340.48907556  .00000781  00000-0  72875-4 0  9991
2 57291  43.0045   9.9299 0001135 274.3259  85.7454 15.02537985133591
Epoch: 2025-12-06T11:44Z
TLE epoch observation values (Epoch: 2025-12-06T11:44:16.128Z)
Latitude
0.00001°
Longitude
118.34663°
Altitude
558.793 km
Speed
7.584 km/s
True Right ascension
00h 39m 43s
True Declination
0° 00' 00"
Sunlit
Object was in full shadow at epoch
Visualization orbit readout
Latitude
Unknown
Longitude
Unknown
Altitude
Unknown
Speed
Unknown
Apparent Right ascension
Unknown
Apparent Declination
Unknown
Sunlit
N/A
Visualization observer readout
Local Sidereal Time
12:19:54
Azimuth
Unknown
Elevation
Unknown
Doppler factor
Unknown
Orbital elements
Apogee altitude
561.784 km
Perigee altitude
560.209 km
Semi-major axis
6,939.134 km
Eccentricity
0.00011
Inclination
43.0045°
RAAN
9.9299°
Arg. of periapsis
274.3259°
True anomaly
85.75837°
Mean anomaly
85.7454°
Eccentric anomaly
85.75189°
Mean motion
3.75479 °/min
Orbital period
95.88 mins
BSTAR
0.000072875
Loading maneuver chart data...
Computing Atmospheric mass density...
Loading historical data...
Loading historical data...
Loading historical data...
Loading historical data...
Loading historical data...
Loading historical data...
Loading historical data...

Documentation

Showing up to 5 results
|